STARLINK-32426, 61681

Orbit data source: Space-Track

STARLINK-32426, 61681 is a payload satellite owned by SpaceX/Seattle (US) in LEO that was launched on Sat, 26 Oct 2024 UTC via an FALCON 9 launch vehicle from the Air Force Eastern Test Range (AFETR). Payload-class satellites include a variety of spacecraft equipped with specific instruments for various scientific and technological missions. These include communications satellites like Starlink; space stations such as the ISS; scientific satellites like the Hubble; Earth observation satellites from companies like Planet Labs, Umbra, and HawkEye 360; GPS; miniature CubeSats for education and research; and military/defense satellites.

Loading next visibility...
Identifier
61681, 2024-193W
Orbit
LEO
Country
Flag of USUS
Related business
Manufacturer
SpaceX/Seattle
Mission
Operational Commercial Communications
Bus & Motor
STARLINK V2M, Unknown motor
Mass
730 kg wet, ~700 kg dry
Launch date (UTC)
2024-10-26 (1 year ago)
Launch vehicle
FALCON 9
Launch site
Air Force Eastern Test Range (AFETR)
Object type
Payload
Rocket body
Debris
Shape & HBR
Box + 2 Pan, 17.7 m
Radar Cross Section
33.884 m², Large (>1 m²)

Expand to show TLE details & history
Last TLE update: 15 hours ago

TLE from 15 hours ago
0 STARLINK-32426
1 61681U 24193W   26014.09507048  .00002274  00000-0  88859-4 0  9994
2 61681  53.1625 344.8948 0000994 106.8458 253.2652 15.30204862 68167
Epoch: 2026-01-14T02:16Z
TLE epoch observation values (Epoch: 2026-01-14T02:16:54.089Z)
Latitude
-0.00001°
Longitude
-162.89856°
Altitude
476.297 km
Speed
7.629 km/s
True Right ascension
22h 59m 34s
True Declination
0° 00' 00"
Sunlit
Object was in daylight at epoch
Visualization orbit readout
Latitude
Unknown
Longitude
Unknown
Altitude
Unknown
Speed
Unknown
Apparent Right ascension
Unknown
Apparent Declination
Unknown
Sunlit
N/A
Visualization observer readout
Local Sidereal Time
17:38:07
Azimuth
Unknown
Elevation
Unknown
Doppler factor
Unknown
Orbital elements
Apogee altitude
476.138 km
Perigee altitude
474.775 km
Semi-major axis
6,853.594 km
Eccentricity
0.0001
Inclination
53.1625°
RAAN
344.8948°
Arg. of periapsis
106.8458°
True anomaly
253.25429°
Mean anomaly
253.2652°
Eccentric anomaly
253.25975°
Mean motion
3.8253 °/min
Orbital period
94.11 mins
BSTAR
0.000088859
Loading maneuver chart data...
Computing Atmospheric mass density...
Loading historical data...
Loading historical data...
Loading historical data...
Loading historical data...
Loading historical data...
Loading historical data...
Loading historical data...

Documentation

Showing up to 5 results
|